Torna al catalogo

QIANFAN-169

AttivoComunicazioniPO
NORAD 69386·PAYLOAD·🇨🇳 China

Lanciato Jun 4, 2026 da Taiyuan Satellite Launch Center

Loading…

Prossimi Passaggi (prossime 24 ore)

TLE

AggiornatoSource: Space-Track

Epoca: Sep 14, 2026, 21:57 UTC

1 69386U 26124E   26257.91505178  .00000132  00000-0  18658-3 0  9992
2 69386  89.0059 352.5804 0001877  98.9000 261.2364 13.51022658 14159

Traccia QIANFAN-169 in tempo reale con AllMySat

Download on the App Store